• In Netherlands
  • List of Countries
  • For 7 days
  • Water Temperature
  • Satellite Maps
  • Weather Map
  • Weather Widgets
  • user-avatar
    Login

    Hourly Weather Tirana

    Today, 27 June, Tuesday

    Time Temperature Precipitation Wind Pressure Humidity
    00:00 +22°C° 0 mm 1 mps 751 mmHg 90%
    01:00 +22°C° 0 mm 1 mps 751 mmHg 89%
    02:00 +21°C° 0 mm 1 mps 751 mmHg 89%
    03:00 +21°C° 0 mm 1 mps 751 mmHg 89%
    04:00 +21°C° 0 mm 1 mps 751 mmHg 89%
    05:00 +21°C° 0 mm 0 mps 751 mmHg 79%
    06:00 +24°C° 0 mm 0 mps 751 mmHg 69%
    07:00 +27°C° 0 mm 0 mps 751 mmHg 60%
    08:00 +31°C° 0 mm 1 mps 751 mmHg 52%
    09:00 +32°C° 0 mm 1 mps 751 mmHg 45%
    10:00 +34°C° 0 mm 1 mps 751 mmHg 38%
    11:00 +35°C° 0 mm 2 mps 751 mmHg 35%
    12:00 +36°C° 0 mm 2 mps 751 mmHg 33%
    13:00 +36°C° 0 mm 2 mps 751 mmHg 31%
    14:00 +36°C° 0 mm 2 mps 751 mmHg 32%
    15:00 +36°C° 0 mm 2 mps 750 mmHg 33%
    16:00 +35°C° 0 mm 2 mps 750 mmHg 34%
    17:00 +32°C° 0 mm 2 mps 750 mmHg 45%
    18:00 +29°C° 0 mm 2 mps 750 mmHg 57%
    19:00 +26°C° 0 mm 2 mps 750 mmHg 68%
    20:00 +25°C° 0 mm 2 mps 750 mmHg 69%
    21:00 +24°C° 0 mm 2 mps 750 mmHg 71%
    22:00 +22°C° 0 mm 3 mps 750 mmHg 73%
    23:00 +22°C° 0 mm 3 mps 750 mmHg 71%

    Tomorrow, 28 June, Wednesday

    Time Temperature Precipitation Wind Pressure Humidity
    00:00 +22°C° 0 mm 3 mps 750 mmHg 70%
    01:00 +22°C° 0 mm 4 mps 750 mmHg 68%
    02:00 +22°C° 0 mm 4 mps 750 mmHg 67%
    03:00 +22°C° 0 mm 4 mps 750 mmHg 66%
    04:00 +22°C° 0 mm 4 mps 750 mmHg 65%
    05:00 +26°C° 0 mm 4 mps 750 mmHg 59%
    06:00 +28°C° 0 mm 4 mps 750 mmHg 52%
    07:00 +30°C° 0 mm 4 mps 750 mmHg 46%
    08:00 +33°C° 0 mm 4 mps 750 mmHg 41%
    09:00 +34°C° 0 mm 5 mps 750 mmHg 37%
    10:00 +36°C° 0 mm 5 mps 750 mmHg 32%
    11:00 +36°C° 0 mm 5 mps 750 mmHg 32%
    12:00 +36°C° 0 mm 5 mps 750 mmHg 32%
    13:00 +38°C° 0 mm 6 mps 750 mmHg 32%
    14:00 +36°C° 0 mm 5 mps 750 mmHg 33%
    15:00 +36°C° 0 mm 5 mps 749 mmHg 34%
    16:00 +35°C° 0 mm 4 mps 749 mmHg 36%
    17:00 +33°C° 0 mm 4 mps 749 mmHg 45%
    18:00 +30°C° 0 mm 4 mps 749 mmHg 55%
    19:00 +27°C° 0 mm 3 mps 750 mmHg 64%
    20:00 +27°C° 0 mm 4 mps 750 mmHg 62%
    21:00 +26°C° 0 mm 4 mps 750 mmHg 60%
    22:00 +26°C° 0 mm 4 mps 750 mmHg 58%
    23:00 +26°C° 0 mm 5 mps 750 mmHg 56%

    Day after tomorrow, 29 June, Thursday

    Time Temperature Precipitation Wind Pressure Humidity
    00:00 +26°C° 0 mm 5 mps 750 mmHg 55%
    01:00 +26°C° 0 mm 5 mps 750 mmHg 53%
    02:00 +26°C° 0 mm 5 mps 750 mmHg 53%
    03:00 +26°C° 0 mm 4 mps 750 mmHg 53%
    04:00 +25°C° 0 mm 4 mps 750 mmHg 53%
    05:00 +27°C° 0.1 mm 4 mps 750 mmHg 49%
    06:00 +30°C° 0.1 mm 5 mps 750 mmHg 46%
    07:00 +33°C° 0.1 mm 5 mps 750 mmHg 43%
    08:00 +35°C° 0 mm 6 mps 750 mmHg 37%
    09:00 +38°C° 0 mm 8 mps 750 mmHg 31%
    10:00 +40°C° 0 mm 9 mps 750 mmHg 25%
    11:00 +40°C° 0 mm 9 mps 750 mmHg 25%
    12:00 +40°C° 0 mm 9 mps 750 mmHg 25%
    13:00 +40°C° 0 mm 9 mps 750 mmHg 25%
    14:00 +40°C° 0 mm 9 mps 750 mmHg 27%
    15:00 +39°C° 0 mm 8 mps 749 mmHg 28%
    16:00 +38°C° 0 mm 8 mps 749 mmHg 30%
    17:00 +35°C° 0 mm 7 mps 750 mmHg 39%
    18:00 +32°C° 0 mm 7 mps 750 mmHg 49%
    19:00 +28°C° 0 mm 6 mps 750 mmHg 58%
    20:00 +27°C° 0 mm 6 mps 751 mmHg 57%
    21:00 +26°C° 0 mm 6 mps 751 mmHg 56%
    22:00 +26°C° 0 mm 5 mps 752 mmHg 56%
    23:00 +25°C° 0 mm 5 mps 752 mmHg 56%

    30 June, Friday

    Time Temperature Precipitation Wind Pressure Humidity
    00:00 +25°C° 0 mm 5 mps 752 mmHg 56%
    01:00 +25°C° 0 mm 4 mps 752 mmHg 57%
    02:00 +24°C° 0 mm 3 mps 752 mmHg 58%
    03:00 +24°C° 0 mm 3 mps 752 mmHg 59%
    04:00 +23°C° 0 mm 2 mps 752 mmHg 60%
    05:00 +26°C° 0 mm 2 mps 752 mmHg 53%
    06:00 +29°C° 0 mm 2 mps 753 mmHg 46%
    07:00 +31°C° 0 mm 2 mps 753 mmHg 39%
    08:00 +35°C° 0 mm 2 mps 753 mmHg 35%
    09:00 +36°C° 0 mm 1 mps 753 mmHg 31%
    10:00 +39°C° 0 mm 1 mps 753 mmHg 26%
    11:00 +40°C° 0 mm 2 mps 753 mmHg 25%
    12:00 +40°C° 0 mm 3 mps 752 mmHg 23%
    13:00 +42°C° 0 mm 3 mps 752 mmHg 22%
    14:00 +40°C° 0 mm 3 mps 752 mmHg 24%
    15:00 +40°C° 0 mm 3 mps 752 mmHg 27%
    16:00 +39°C° 0 mm 3 mps 751 mmHg 29%
    17:00 +36°C° 0 mm 3 mps 751 mmHg 40%
    18:00 +33°C° 0 mm 3 mps 751 mmHg 51%
    19:00 +29°C° 0 mm 2 mps 751 mmHg 61%
    20:00 +29°C° 0 mm 3 mps 751 mmHg 59%
    21:00 +29°C° 0 mm 3 mps 751 mmHg 56%
    22:00 +28°C° 0 mm 3 mps 752 mmHg 53%
    23:00 +28°C° 0 mm 3 mps 751 mmHg 53%

    1 July, Saturday

    Time Temperature Precipitation Wind Pressure Humidity
    00:00 +27°C° 0 mm 3 mps 751 mmHg 52%
    01:00 +27°C° 0 mm 3 mps 751 mmHg 52%
    02:00 +27°C° 0 mm 4 mps 751 mmHg 50%
    03:00 +27°C° 0 mm 4 mps 750 mmHg 48%
    04:00 +27°C° 0 mm 4 mps 750 mmHg 46%
    05:00 +29°C° 0 mm 4 mps 750 mmHg 42%
    06:00 +33°C° 0 mm 3 mps 751 mmHg 39%
    07:00 +35°C° 0 mm 3 mps 751 mmHg 35%
    08:00 +36°C° 0 mm 3 mps 751 mmHg 31%
    09:00 +38°C° 0 mm 3 mps 751 mmHg 26%
    10:00 +40°C° 0 mm 3 mps 751 mmHg 22%
    11:00 +40°C° 0 mm 3 mps 751 mmHg 22%
    12:00 +40°C° 0 mm 3 mps 750 mmHg 23%
    13:00 +42°C° 0 mm 3 mps 750 mmHg 23%
    14:00 +40°C° 0 mm 3 mps 750 mmHg 26%
    15:00 +39°C° 0 mm 3 mps 750 mmHg 28%
    16:00 +39°C° 0 mm 3 mps 749 mmHg 31%
    17:00 +36°C° 0 mm 3 mps 749 mmHg 45%
    18:00 +31°C° 0 mm 2 mps 749 mmHg 59%
    19:00 +28°C° 0 mm 2 mps 749 mmHg 72%
    20:00 +27°C° 0 mm 2 mps 749 mmHg 77%
    21:00 +26°C° 0 mm 2 mps 750 mmHg 81%
    22:00 +25°C° 0 mm 2 mps 750 mmHg 85%
    23:00 +24°C° 0 mm 2 mps 750 mmHg 86%

    2 July, Sunday

    Time Temperature Precipitation Wind Pressure Humidity
    00:00 +24°C° 0 mm 3 mps 749 mmHg 87%
    01:00 +22°C° 0 mm 3 mps 749 mmHg 88%
    02:00 +22°C° 0 mm 3 mps 749 mmHg 89%
    03:00 +22°C° 0 mm 3 mps 749 mmHg 89%
    04:00 +21°C° 0 mm 2 mps 749 mmHg 90%
    05:00 +25°C° 0 mm 3 mps 749 mmHg 80%
    06:00 +27°C° 0 mm 3 mps 749 mmHg 70%
    07:00 +30°C° 0 mm 4 mps 748 mmHg 60%
    08:00 +32°C° 0 mm 4 mps 748 mmHg 55%
    09:00 +33°C° 0 mm 5 mps 748 mmHg 51%
    10:00 +34°C° 0 mm 6 mps 748 mmHg 46%
    11:00 +34°C° 0 mm 6 mps 748 mmHg 44%
    12:00 +34°C° 0 mm 7 mps 747 mmHg 41%
    13:00 +34°C° 0 mm 7 mps 747 mmHg 38%
    14:00 +34°C° 0 mm 7 mps 747 mmHg 37%
    15:00 +33°C° 0 mm 8 mps 747 mmHg 37%
    16:00 +32°C° 0 mm 8 mps 747 mmHg 36%
    17:00 +29°C° 0 mm 7 mps 747 mmHg 46%
    18:00 +26°C° 0 mm 6 mps 747 mmHg 56%
    19:00 +23°C° 0 mm 5 mps 748 mmHg 66%
    20:00 +21°C° 0.1 mm 5 mps 748 mmHg 73%
    21:00 +20°C° 0.1 mm 4 mps 748 mmHg 79%
    22:00 +19°C° 0.1 mm 3 mps 748 mmHg 85%
    23:00 +19°C° 0.4 mm 3 mps 748 mmHg 85%
    Show more